Other Public Products
Issued by NWS Grand Forks, ND

Home | Current Version | Previous Version | Text Only | Print | Product List | Glossary Off
Versions: 1 2 3 4 5 6 7 8 9 10 11 12 13 14 15 16 17 18 19 20 21 22 23 24 25 26 27 28 29 30 31 32 33 34 35 36 37 38 39 40 41 42 43 44 45 46 47 48 49 50

000
FPUS83 KFGF 230631
OPUFGF
PRAIRIE TO PINES WEATHER ROUNDUP
NATIONAL WEATHER SERVICE EASTERN NORTH DAKOTA/GRAND FORKS ND
100 AM CDT TUE AUG 23 2016

 **SATELLITE DATA USED TO AUGMENT SKY COVER AT AUTOMATED STATIONS**
 *****  WEATHER ACROSS EASTERN NORTH DAKOTA  *****

CITY           SKY/WX    TMP DP  RH WIND       PRES   REMARKS
GRAND FORKS    PTCLDY    74  68  81 SE13      29.66S
6HR MIN TEMP:  71; 6HR MAX TEMP:  82;

GRAND FORKS AF CLOUDY    71  68  89 SE8       29.66S
GRAND CITY NWS NOT AVBL
BUXTON           N/A    N/A N/A N/A SE12        N/A
DEVILS LAKE    CLOUDY    74  69  85 SE15      29.62F
6HR MIN TEMP:  72; 6HR MAX TEMP:  80;

FARGO          CLEAR     75  65  70 SE18G28   29.68F
6HR MIN TEMP:  75; 6HR MAX TEMP:  83;

WAHPETON ARPT  PTCLDY    68  63  83 SE14      29.72F
$$

 *****  WEATHER ACROSS CENTRAL AND WESTERN NORTH DAKOTA  *****

CITY           SKY/WX    TMP DP  RH WIND       PRES   REMARKS
JAMESTOWN      CLEAR     72  66  81 S14       29.61F
6HR MIN TEMP:  72; 6HR MAX TEMP:  80;

BISMARCK       CLEAR     69  64  84 SE3       29.58R
6HR MIN TEMP:  67; 6HR MAX TEMP:  88;

MINOT          CLEAR     68  66  93 N6        29.60S
6HR MIN TEMP:  68; 6HR MAX TEMP:  92;

MINOT AFB      CLEAR     68  66  93 SE7       29.59F
6HR MIN TEMP:  67; 6HR MAX TEMP:  90;

GARRISON         N/A     70  68  93 NE5       29.59F
6HR MIN TEMP:  70; 6HR MAX TEMP:  89;

WILLISTON      CLOUDY    67  38  34 NE5       29.63S
6HR MIN TEMP:  67; 6HR MAX TEMP:  97;

DICKINSON      CLEAR     62  52  69 W7        29.61F
6HR MIN TEMP:  61; 6HR MAX TEMP:  93;

HETTINGER      CLEAR     56  51  84 CALM      29.65F
6HR MIN TEMP:  55; 6HR MAX TEMP:  88; 6HR PCP: TRACE;

$$

 *****  OTHER OBSERVATIONS NORTHEAST NORTH DAKOTA  *****

CITY           SKY/WX    TMP DP  RH WIND       PRES   REMARKS
WALHALLA       FAIR      66  66 100 SE6       29.67R
LANGDON        CLOUDY    68  68 100 SE9       29.67F
CAVALIER       FAIR      66  64  94 CALM      29.67R
GRAFTON        FAIR      66  66 100 SE6       29.68S
CANDO          FAIR      68  68 100 E9        29.64F
FORT TOTTEN      N/A     72  67  84 SE8       29.95
ROLLA          FAIR      63  63 100 SE3       29.66F
RUGBY          NOT AVBL
 ***** THE ABOVE OBSERVATIONS ARE NON NWS ARE NOT QUALITY
        CONTROLLED AND MAY MIS-REPORT RAIN FOR SNOW...
$$

 *****  OTHER OBSERVATIONS SOUTHEAST NORTH DAKOTA *****

CITY           SKY/WX    TMP DP  RH WIND       PRES   REMARKS
COOPERSTOWN    NOT AVBL
VALLEY CITY    FAIR      72  72 100 SE10      29.67F
OAKES            N/A    N/A N/A N/A MISG        N/A
GWINNER        FAIR      75  64  69 S23G32    29.67F
SHEYENNE NWR     N/A     71  65  82 S7        29.95S
BUFFALO          N/A     69  66  91 SE12        N/A
WYNDMERE         N/A     72  66  83 S3          N/A
 ***** THE ABOVE OBSERVATIONS ARE NON NWS ARE NOT QUALITY
       CONTROLLED AND MAY MIS-REPORT RAIN FOR SNOW...
$$

  *****  WEATHER ACROSS NORTHERN MINNESOTA  *****

CITY           SKY/WX    TMP DP  RH WIND       PRES   REMARKS
FLAG ISLAND    CLEAR     72  68  88 CALM      29.74F FOG
WARROAD        CLEAR     64  61  88 SE3       29.75F
ROSEAU         CLEAR     66  61  82 SE5       29.73F
HALLOCK        CLEAR     72  66  83 SE10      29.67S
THF RVR FALLS  CLEAR     68  65  90 SE9       29.73S
6HR MIN TEMP:  67; 6HR MAX TEMP:  80;

HALSTAD          N/A     74  66  77 S14         N/A
FOSSTON        CLEAR     70  64  83 S9        29.76R
BAUDETTE       CLEAR     65  63  93 SE6       29.76F
6HR MIN TEMP:  65; 6HR MAX TEMP:  79;

WASKISH        CLEAR     68  66  94 S6        29.76F
CROOKSTON      CLEAR     73  68  83 S14       29.69F
$$
  *****  WEATHER ACROSS CENTRAL AND WEST MINNESOTA  *****

CITY           SKY/WX    TMP DP  RH WIND       PRES   REMARKS
BEMIDJI        CLEAR     71  65  82 S8        29.78F
PARK RAPIDS    CLEAR     70  64  81 SE8       29.81S
6HR MIN TEMP:  70; 6HR MAX TEMP:  80;

WADENA         NOT AVBL
DETROIT LAKES  PTCLDY    72  64  78 S13       29.78S
MOORHEAD       CLEAR     73  64  73 S16       29.70F
FERGUS FALLS     N/A     72  63  73 S15       29.77S
ELBOW LAKE     FAIR      69  63  82 S18       29.79S
MORRIS MN      CLEAR     70  63  78 S14       29.79S
STAPLES        CLEAR     70  61  73 S13G18    29.84R
WHEATON        CLEAR     72  64  78 SE10      29.76S
$$
  *****  WEATHER ELSEWHERE ACROSS MINNESOTA  *****

CITY           SKY/WX    TMP DP  RH WIND       PRES   REMARKS
DULUTH         CLEAR     69  60  73 SW15      29.90R
6HR MIN TEMP:  69; 6HR MAX TEMP:  78;

INTRNTL FALLS  CLEAR     61  60  97 E3        29.80S
6HR MIN TEMP:  61; 6HR MAX TEMP:  78;

ELY            CLEAR     70  61  73 SW7       29.87S
CLOQUET        CLEAR     66  57  72 S8        29.90S
BRAINERD       CLEAR     68  62  81 S9        29.86S
6HR MIN TEMP:  68; 6HR MAX TEMP:  79;

HIBBING        CLEAR     67  61  81 VRB3      29.86S
6HR MIN TEMP:  66; 6HR MAX TEMP:  75;

ALEXANDRIA     CLEAR     71  62  73 S21G28    29.83S
6HR MIN TEMP:  71; 6HR MAX TEMP:  81;

SAINT CLOUD    CLOUDY    70  62  76 S14       29.89R
6HR MIN TEMP:  70; 6HR MAX TEMP:  79;

MINNEAPOLIS    CLOUDY    73  59  61 S10G21    29.94S
6HR MIN TEMP:  73; 6HR MAX TEMP:  81;

$$

  *****  WEATHER ACROSS SOUTH DAKOTA  *****

CITY           SKY/WX    TMP DP  RH WIND       PRES   REMARKS
SIOUX FALLS    PTCLDY    73  60  63 S18G28    29.88S
6HR MIN TEMP:  73; 6HR MAX TEMP:  83;

BROOKINGS      PTCLDY    70  60  70 MISG      29.85
WATERTOWN      CLOUDY    72  62  71 S18G26    29.80S
6HR MIN TEMP:  72; 6HR MAX TEMP:  83;

HURON          CLOUDY    73  62  68 S16       29.75R
6HR MIN TEMP:  73; 6HR MAX TEMP:  88;

SISSETON         N/A     77  63  61 SW18G31   29.70S
ABERDEEN       CLOUDY    74  63  68 S18G29    29.69S
6HR MIN TEMP:  74; 6HR MAX TEMP:  87;

MITCHELL       MOCLDY    74  62  66 S16G24    29.79S
PIERRE         PTCLDY    77  59  53 S15       29.66R
6HR MIN TEMP:  77; 6HR MAX TEMP:  94;

MOBRIDGE       CLEAR     78  59  51 SE9       29.59R
RAPID CITY     CLEAR     62  45  53 SE5       29.70R
6HR MIN TEMP:  60; 6HR MAX TEMP:  96;

$$

  *****  SOME WEATHER IN NEARBY STATES *****

CITY           SKY/WX    TMP DP  RH WIND       PRES   REMARKS
GLASGOW MT     CLOUDY    64  32  30 NW18      29.73S
6HR MIN TEMP:  64; 6HR MAX TEMP:  87;

GREAT FALLS MT MOCLDY    61  27  27 W14       29.91R
6HR MIN TEMP:  60; 6HR MAX TEMP:  78;

CHEYENNE WY    CLEAR     64  36  35 W13       30.00F
6HR MIN TEMP:  64; 6HR MAX TEMP:  77;

SCOTTSBLUFF NE CLEAR     61  56  83 SE5       29.85S
6HR MIN TEMP:  61; 6HR MAX TEMP:  88;

OMAHA NE       CLOUDY    72  61  68 S16       29.99S
6HR MIN TEMP:  71; 6HR MAX TEMP:  81;

DES MOINES IA  CLOUDY    68  60  75 S10       30.05F
6HR MIN TEMP:  67; 6HR MAX TEMP:  79;

DAVENPORT IA   CLEAR     66  58  75 S8        30.14S
6HR MIN TEMP:  66; 6HR MAX TEMP:  75;

CHICAGO IL     PTCLDY    64  57  78 S7        30.18R
6HR MIN TEMP:  64; 6HR MAX TEMP:  75;

EAU CLAIRE WI  CLEAR     70  60  70 S9        30.00R
6HR MIN TEMP:  70; 6HR MAX TEMP:  78;

LA CROSSE WI   CLEAR     71  67  87 S9        30.05R
6HR MIN TEMP:  71; 6HR MAX TEMP:  79;

$$

  *****  SOME NATIONAL WEATHER *****

CITY           SKY/WX    TMP DP  RH WIND       PRES   REMARKS
LA GUARDIA NY  PTCLDY    69  49  48 N6        30.22S
6HR MIN TEMP:  69; 6HR MAX TEMP:  75;                              C1F1C2F2C3F3C4F4C5F5C6F6C7F7C8F8C9F9CaFaCbFbCcFcCdFdCe!



USA.gov is the U.S. government's official web portal to all federal, state and local government web resources and services.